Alva, OK

3:54 PM CDT on October 17, 2017 (GMT -0500)
Alva Regional

Weather History for KAVK - April, 2014

Change the Weather History Date:

Monday, April 28, 2014

  Actual Average Record
Temperature  
Mean Temperature 58 °F -  
Max Temperature 71 °F 73 °F 95 °F (1951)
Min Temperature 46 °F 47 °F 31 °F (1965)
Degree Days  
Heating Degree Days 6    
Growing Degree Days 8 (Base 50)    
Moisture  
Dew Point 33 °F    
Average Humidity 42    
Maximum Humidity 66    
Minimum Humidity 20    
Precipitation  
Precipitation 0.00 in - - ()
Sea Level Pressure  
Sea Level Pressure 29.57 in    
Wind  
Wind Speed 19 mph (WNW)    
Max Wind Speed 34 mph    
Max Gust Speed 54 mph    
Visibility 10 miles    
Events Rain    
Averages and records for this station are not official NWS values.
T = Trace of Precipitation, MM = Missing Value Source: NWS Daily Summary

Daily Weather History Graph

Daily Weather History Graph

Search for Another Location

Airport or City:

Trip Planner

Search our weather history database for the weather conditions in past years. The results will help you decide how hot, cold, wet, or windy it might be!

Date:

Astronomy

Apr. 28, 2014 Rise Set
Actual Time 6:44 AM CDT 8:20 PM CDT
Civil Twilight 6:16 AM CDT 8:48 PM CDT
Nautical Twilight 5:43 AM CDT 9:21 PM CDT
Astronomical Twilight 5:08 AM CDT 9:56 PM CDT
Moon 6:21 AM CDT (4/28) 8:01 PM CDT (4/28)
Length of Visible Light 14h 31m
Length of Day
13h 36m
Waning Crescent, 0% of the Moon is Illuminated
Apr 28
Waning Crescent
Apr 29
New
May 6
First Quarter
May 14
Full
May 21
Last Quarter

Hourly Weather History & Observations

Time (CDT) Temp. Windchill Dew Point Humidity Pressure Visibility Wind Dir Wind Speed Gust Speed Precip Events Conditions
12:15 AM 55.4 °F - 37.4 °F 51% 29.43 in 8.0 mi WNW 24.2 mph 31.1 mph N/A   Overcast
12:35 AM 53.6 °F - 37.4 °F 54% 29.44 in 10.0 mi WNW 15.0 mph 23.0 mph N/A   Overcast
12:55 AM 53.6 °F - 37.4 °F 54% 29.44 in 10.0 mi WNW 17.3 mph 29.9 mph N/A   Mostly Cloudy
1:15 AM 51.8 °F - 37.4 °F 58% 29.44 in 10.0 mi WNW 18.4 mph 27.6 mph N/A   Mostly Cloudy
1:35 AM 51.8 °F - 37.4 °F 58% 29.44 in 10.0 mi WNW 19.6 mph 24.2 mph N/A   Mostly Cloudy
1:55 AM 50.0 °F - 35.6 °F 58% 29.45 in 10.0 mi WNW 24.2 mph 31.1 mph N/A   Clear
2:15 AM 50.0 °F - 35.6 °F 58% 29.46 in 10.0 mi WNW 17.3 mph 24.2 mph N/A   Clear
2:35 AM 50.0 °F - 35.6 °F 58% 29.46 in 10.0 mi WNW 17.3 mph 25.3 mph N/A   Clear
2:55 AM 48.2 °F - 35.6 °F 62% 29.47 in 10.0 mi WNW 13.8 mph 21.9 mph N/A   Partly Cloudy
3:15 AM 48.2 °F - 35.6 °F 62% 29.47 in 10.0 mi WNW 13.8 mph 19.6 mph N/A   Partly Cloudy
3:35 AM 48.2 °F - 35.6 °F 62% 29.48 in 10.0 mi WNW 11.5 mph - N/A   Clear
3:55 AM 48.2 °F - 35.6 °F 62% 29.49 in 10.0 mi WNW 11.5 mph 17.3 mph N/A   Clear
4:15 AM 48.2 °F - 35.6 °F 62% 29.49 in 10.0 mi WNW 15.0 mph 23.0 mph N/A   Clear
4:35 AM 48.2 °F - 35.6 °F 62% 29.49 in 10.0 mi WNW 15.0 mph 20.7 mph N/A   Scattered Clouds
4:55 AM 48.2 °F - 35.6 °F 62% 29.51 in 10.0 mi NW 16.1 mph 25.3 mph N/A   Scattered Clouds
5:15 AM 50.0 °F - 35.6 °F 58% 29.51 in 10.0 mi NW 19.6 mph 29.9 mph N/A   Partly Cloudy
5:35 AM 48.2 °F - 35.6 °F 62% 29.52 in 10.0 mi WNW 15.0 mph 18.4 mph N/A   Clear
5:55 AM 50.0 °F - 35.6 °F 58% 29.52 in 10.0 mi WNW 18.4 mph 25.3 mph N/A   Clear
6:15 AM 48.2 °F - 35.6 °F 62% 29.54 in 10.0 mi West 13.8 mph 23.0 mph N/A   Clear
6:35 AM 48.2 °F - 35.6 °F 62% 29.54 in 10.0 mi WNW 16.1 mph 20.7 mph N/A   Clear
6:55 AM 48.2 °F - 35.6 °F 62% 29.56 in 10.0 mi WNW 12.7 mph 21.9 mph N/A   Clear
7:15 AM 46.4 °F 41.5 °F 35.6 °F 66% 29.56 in 10.0 mi West 10.4 mph 17.3 mph N/A   Clear
7:35 AM 48.2 °F - 35.6 °F 62% 29.57 in 10.0 mi West 12.7 mph 18.4 mph N/A   Clear
7:55 AM 48.2 °F - 35.6 °F 62% 29.57 in 10.0 mi West 11.5 mph 19.6 mph N/A   Clear
8:15 AM 48.2 °F - 37.4 °F 66% 29.58 in 10.0 mi West 12.7 mph 18.4 mph N/A   Clear
8:35 AM 51.8 °F - 37.4 °F 58% 29.58 in 10.0 mi West 16.1 mph 20.7 mph N/A   Clear
8:55 AM 53.6 °F - 37.4 °F 54% 29.59 in 10.0 mi WNW 13.8 mph 24.2 mph N/A   Clear
9:15 AM 55.4 °F - 37.4 °F 51% 29.58 in 10.0 mi WNW 19.6 mph 27.6 mph N/A   Clear
9:35 AM 57.2 °F - 35.6 °F 44% 29.59 in 10.0 mi WNW 18.4 mph 32.2 mph N/A   Clear
9:55 AM 59.0 °F - 35.6 °F 42% 29.59 in 10.0 mi NW 24.2 mph 29.9 mph N/A   Clear
10:15 AM 62.6 °F - 35.6 °F 37% 29.59 in 10.0 mi WNW 23.0 mph 38.0 mph N/A   Clear
10:35 AM 62.6 °F - 33.8 °F 34% 29.59 in 10.0 mi NW 26.5 mph 42.6 mph N/A   Clear
10:55 AM 64.4 °F - 33.8 °F 32% 29.58 in 10.0 mi WNW 24.2 mph 40.3 mph N/A   Clear
11:15 AM 64.4 °F - 33.8 °F 32% 29.58 in 10.0 mi NW 28.8 mph 43.7 mph N/A   Clear
11:35 AM 66.2 °F - 33.8 °F 30% 29.58 in 10.0 mi NW 29.9 mph 41.4 mph N/A   Clear
11:55 AM 66.2 °F - 33.8 °F 30% 29.58 in 10.0 mi NW 26.5 mph 40.3 mph N/A   Partly Cloudy
12:15 PM 68.0 °F - 33.8 °F 28% 29.58 in 10.0 mi WNW 23.0 mph 38.0 mph N/A   Partly Cloudy
12:35 PM 68.0 °F - 32.0 °F 26% 29.57 in 10.0 mi WNW 31.1 mph 41.4 mph N/A   Scattered Clouds
12:55 PM 68.0 °F - 32.0 °F 26% 29.57 in 10.0 mi WNW 25.3 mph 43.7 mph N/A   Scattered Clouds
1:15 PM 68.0 °F - 32.0 °F 26% 29.56 in 10.0 mi WNW 27.6 mph 36.8 mph N/A   Scattered Clouds
1:35 PM 68.0 °F - 32.0 °F 26% 29.56 in 10.0 mi NW 24.2 mph 35.7 mph N/A   Scattered Clouds
1:55 PM 68.0 °F - 32.0 °F 26% 29.56 in 10.0 mi WNW 25.3 mph 36.8 mph N/A   Mostly Cloudy
2:15 PM 68.0 °F - 30.2 °F 24% 29.55 in 10.0 mi NW 27.6 mph 43.7 mph N/A   Partly Cloudy
2:55 PM 71.6 °F - 32.0 °F 23% 29.56 in 10.0 mi NW 34.5 mph 41.4 mph N/A   Clear
3:35 PM 68.0 °F - 32.0 °F 26% 29.57 in 10.0 mi WNW 20.7 mph 36.8 mph N/A Rain Light Rain
3:55 PM 69.8 °F - 32.0 °F 25% 29.57 in 10.0 mi West 20.7 mph 32.2 mph N/A   Clear
4:15 PM 66.2 °F - 32.0 °F 28% 29.57 in 9.0 mi West 21.9 mph 54.1 mph N/A Rain Light Rain
4:35 PM 69.8 °F - 28.4 °F 21% 29.56 in 10.0 mi WNW 33.4 mph 44.9 mph N/A   Partly Cloudy
4:55 PM 71.6 °F - 30.2 °F 22% 29.57 in 10.0 mi WNW 25.3 mph 44.9 mph N/A   Partly Cloudy
5:15 PM 71.6 °F - 28.4 °F 20% 29.56 in 10.0 mi NW 29.9 mph 40.3 mph N/A   Partly Cloudy
5:35 PM 71.6 °F - 28.4 °F 20% 29.57 in 10.0 mi WNW 25.3 mph 41.4 mph N/A   Partly Cloudy
5:55 PM 69.8 °F - 28.4 °F 21% 29.58 in 10.0 mi NW 29.9 mph 38.0 mph N/A   Clear
6:15 PM 68.0 °F - 26.6 °F 21% 29.58 in 10.0 mi NW 21.9 mph 38.0 mph N/A   Clear
6:35 PM 68.0 °F - 26.6 °F 21% 29.58 in 10.0 mi NW 20.7 mph 33.4 mph N/A   Partly Cloudy
6:55 PM 68.0 °F - 26.6 °F 21% 29.59 in 10.0 mi NW 19.6 mph 33.4 mph N/A   Clear
7:15 PM 66.2 °F - 26.6 °F 23% 29.59 in 10.0 mi NW 26.5 mph 36.8 mph N/A   Partly Cloudy
7:35 PM 66.2 °F - 24.8 °F 21% 29.61 in 10.0 mi NW 20.7 mph 34.5 mph N/A   Clear
7:55 PM 64.4 °F - 24.8 °F 22% 29.62 in 10.0 mi NW 16.1 mph 28.8 mph N/A   Clear
8:15 PM 64.4 °F - 24.8 °F 22% 29.63 in 10.0 mi NW 17.3 mph 26.5 mph N/A   Clear
8:35 PM 60.8 °F - 32.0 °F 34% 29.64 in 10.0 mi NNW 10.4 mph - N/A   Scattered Clouds
8:55 PM 59.0 °F - 32.0 °F 36% 29.66 in 10.0 mi NNW 10.4 mph - N/A   Mostly Cloudy
9:15 PM 59.0 °F - 32.0 °F 36% 29.68 in 10.0 mi North 12.7 mph 23.0 mph N/A   Mostly Cloudy
9:55 PM 57.2 °F - 32.0 °F 38% 29.71 in 10.0 mi NNW 15.0 mph 19.6 mph N/A   Scattered Clouds
10:15 PM 57.2 °F - 32.0 °F 38% 29.71 in 10.0 mi NNW 12.7 mph 25.3 mph N/A   Mostly Cloudy
10:35 PM 55.4 °F - 32.0 °F 41% 29.72 in 10.0 mi NW 11.5 mph - N/A   Overcast
10:55 PM 55.4 °F - 32.0 °F 41% 29.72 in 10.0 mi NW 15.0 mph 20.7 mph N/A   Overcast
11:15 PM 55.4 °F - 32.0 °F 41% 29.72 in 10.0 mi NW 17.3 mph 27.6 mph N/A   Overcast
11:35 PM 55.4 °F - 32.0 °F 41% 29.73 in 10.0 mi NW 13.8 mph 23.0 mph N/A   Scattered Clouds
11:55 PM 53.6 °F - 32.0 °F 44% 29.73 in 10.0 mi NW 10.4 mph 21.9 mph N/A   Clear